1483869600.3,8634,3.5,72588.5,-10.59,-43.55,-44.13,0,*51
1483869601.54,8635,3.5,72588.3,-10.57,-43.95,-44.73,0,*54
1483869602.78,8636,3.5,72594.3,-10.57,-43.49,-44.13,0,*50
1483869604.04,8637,3.5,72592.8,-10.59,-43.49,-44.21,0,*5E
1483869605.26,8638,3.5,72594.5,-10.57,-43.41,-44.07,0,*53
1483869606.54,8639,3.5,72594.5,-10.55,-43.67,-44.67,0,*52
1483869607.8,8640,3.5,72592.3,-10.55,-44.47,-45.21,0,*5A
1483869609.03,8641,3.5,72598.0,-10.53,-43.81,-44.61,0,*55
1483869610.27,8642,3.5,72594.5,-10.55,-43.61,-44.27,0,*5C
1483869611.52,8643,3.5,72592.8,-10.55,-43.01,-43.61,0,*5E
1483869612.78,8644,3.5,72594.3,-10.53,-43.55,-44.21,0,*5D
1483869613.98,8645,3.5,72598.8,-10.53,-43.87,-44.61,0,*57
1483869615.22,8646,3.5,72596.3,-10.51,-43.61,-44.27,0,*5C
1483869616.43,8647,3.5,72592.8,-10.53,-43.87,-44.79,0,*5C
1483869617.64,8648,3.5,72590.0,-10.53,-44.07,-44.87,0,*5D
1483869618.88,8649,3.5,72590.5,-10.53,-44.01,-44.79,0,*5B
1483869620.11,8650,3.5,72586.3,-10.53,-43.87,-44.67,0,*55
1483869621.36,8651,3.5,72590.3,-10.55,-44.07,-44.67,0,*5D
1483869622.59,8652,3.5,72588.5,-10.51,-43.87,-44.79,0,*5A
1483869623.87,8653,3.5,72590.0,-10.51,-43.55,-44.01,0,*5B
1483869625.13,8654,3.5,72598.8,-10.51,-43.67,-44.41,0,*59
1483869626.36,8655,3.5,72594.0,-10.51,-43.87,-44.61,0,*54
1483869627.61,8656,3.5,72590.3,-10.51,-43.67,-44.41,0,*5B
1483869628.85,8657,3.5,72588.8,-10.49,-43.49,-44.21,0,*59
1483869630.09,8658,3.5,72590.3,-10.49,-43.49,-44.21,0,*56
1483869631.35,8659,3.5,72594.5,-10.51,-43.67,-44.61,0,*56
1483869632.58,8660,3.5,72588.5,-10.49,-43.49,-44.13,0,*5C
1483869633.79,8661,3.5,72592.0,-10.49,-43.75,-44.41,0,*55
1483869635.03,8662,3.5,72592.8,-10.49,-44.21,-44.79,0,*5B
1483869636.23,8663,3.5,72594.0,-10.49,-43.75,-44.53,0,*54
1483869637.49,8664,3.5,72594.5,-10.51,-43.67,-44.41,0,*5A
1483869638.7,8665,3.5,72596.0,-10.49,-43.95,-44.61,0,*5D
1483869639.96,8666,3.5,72598.5,-10.49,-43.55,-44.33,0,*55
1483869641.19,8667,3.5,72594.5,-10.49,-43.61,-44.33,0,*53
1483869642.4,8668,3.5,72596.5,-10.49,-43.75,-44.61,0,*5E
1483869643.64,8669,3.5,72600.3,-10.49,-43.61,-44.21,0,*5E
1483869644.9,8670,3.5,72590.5,-10.47,-43.49,-44.13,0,*53
1483869646.13,8671,3.5,72594.0,-10.45,-43.21,-43.95,0,*57
1483869647.36,8672,3.5,72596.3,-10.45,-43.21,-43.75,0,*5A
1483869648.57,8673,3.5,72590.5,-10.45,-42.89,-43.49,0,*57
1483869649.8,8674,3.5,72596.0,-10.45,-42.89,-43.55,0,*5D
1483869651.04,8675,3.5,72592.0,-10.43,-43.21,-43.95,0,*55
1483869652.28,8676,3.5,72600.5,-10.43,-43.49,-44.13,0,*51
1483869653.49,8677,3.56,72598.3,-10.43,-43.75,-44.53,0,*5B
1483869654.73,8678,3.5,72598.5,-10.43,-43.21,-43.95,0,*58
1483869656.0,8679,3.5,72596.3,-10.41,-43.41,-44.13,0,*54
1483869657.26,8680,3.5,72598.5,-10.41,-43.41,-44.13,0,*52
1483869658.5,8681,3.5,72600.5,-10.41,-43.95,-44.87,0,*57
1483869659.73,8682,3.56,72600.5,-10.43,-44.27,-45.21,0,*55
1483869660.98,8683,3.5,72590.8,-10.41,-44.87,-45.61,0,*58
1483869662.24,8684,3.5,72594.3,-10.41,-43.95,-44.67,0,*5C
1483869663.51,8685,3.5,72590.8,-10.41,-42.89,-43.67,0,*56
1483869664.75,8686,3.5,72592.5,-10.41,-43.01,-43.87,0,*5A
1483869665.99,8687,3.5,72590.3,-10.41,-43.49,-44.27,0,*5A
1483869667.24,8688,3.5,72592.8,-10.41,-43.49,-44.27,0,*55
1483869668.48,8689,3.5,72594.3,-10.41,-43.41,-43.95,0,*52
1483869669.77,8690,3.5,72588.5,-10.41,-43.67,-44.33,0,*55
1483869671.03,8691,3.5,72596.0,-10.37,-44.41,-45.27,0,*52
1483869672.29,8692,3.56,72602.0,-10.37,-43.35,-44.01,0,*50
1483869673.53,8693,3.5,72596.0,-10.37,-44.07,-44.79,0,*58
1483869674.77,8694,3.5,72600.0,-10.35,-43.75,-44.21,0,*52
1483869676.03,8695,3.5,72596.3,-10.37,-44.01,-44.61,0,*51
1483869677.27,8696,3.5,72598.5,-10.37,-43.49,-44.27,0,*5B
1483869678.5,8697,3.5,72594.0,-10.37,-43.49,-44.07,0,*58
1483869679.76,8698,3.5,72594.5,-10.37,-43.61,-44.47,0,*59
1483869681.03,8699,3.5,72592.5,-10.37,-43.41,-44.21,0,*5A
1483869682.28,8700,3.5,72588.8,-10.37,-43.87,-44.47,0,*51
1483869683.52,8701,3.5,72596.5,-10.37,-43.41,-44.27,0,*5C
1483869684.79,8702,3.56,72606.8,-10.37,-43.01,-43.67,0,*58
1483869686.04,8703,3.5,72602.5,-10.35,-45.07,-46.01,0,*5E
1483869687.27,8704,3.5,72602.0,-10.37,-45.33,-46.21,0,*5E
1483869688.53,8705,3.5,72602.0,-10.37,-46.61,-47.51,0,*5D
1483869689.77,8706,3.5,72602.5,-10.43,-46.01,-46.89,0,*5F
1483869691.01,8707,3.5,72596.5,-10.43,-45.95,-46.69,0,*5E
1483869692.25,8708,3.5,72592.8,-10.43,-44.67,-45.41,0,*54
1483869693.48,8709,3.5,72594.0,-10.43,-43.87,-44.67,0,*59
1483869694.73,8710,3.5,72588.5,-10.43,-43.67,-44.67,0,*5F
1483869695.95,8711,3.5,72590.0,-10.43,-44.27,-44.99,0,*5C
1483869697.18,8712,3.5,72594.0,-10.43,-44.33,-45.13,0,*59
1483869698.44,8713,3.5,72594.8,-10.41,-43.95,-44.67,0,*53
1483869699.68,8714,3.5,72594.3,-10.43,-44.07,-44.73,0,*5F
1483869700.94,8715,3.5,72596.3,-10.43,-43.67,-44.47,0,*58
1483869702.17,8716,3.5,72604.3,-10.43,-43.55,-44.53,0,*5F
1483869703.41,8717,3.5,72596.5,-10.43,-45.61,-46.49,0,*56
1483869704.64,8718,3.5,72602.0,-10.43,-45.21,-46.01,0,*51
1483869705.87,8719,3.5,72602.8,-10.43,-44.87,-45.61,0,*58
1483869707.09,8720,3.5,72592.8,-10.45,-45.13,-46.01,0,*5D
1483869708.35,8721,3.5,72588.3,-10.47,-44.73,-45.61,0,*5C
1483869709.58,8722,3.5,72588.8,-10.45,-44.07,-44.73,0,*5C
1483869710.83,8723,3.5,72592.3,-10.45,-43.67,-44.47,0,*5B
1483869712.07,8724,3.5,72594.8,-10.43,-43.55,-44.27,0,*5D
1483869713.29,8725,3.5,72592.0,-10.43,-44.27,-45.13,0,*58
1483869714.5,8726,3.5,72596.5,-10.43,-44.27,-44.99,0,*58
1483869715.75,8727,3.5,72598.3,-10.43,-45.21,-46.15,0,*58
1483869716.97,8728,3.5,72596.0,-10.45,-44.53,-45.33,0,*52
1483869718.18,8729,3.5,72596.3,-10.45,-44.53,-45.41,0,*56
1483869719.41,8730,3.5,72602.8,-10.45,-44.47,-45.21,0,*5D
1483869720.67,8731,3.5,72594.8,-10.45,-45.73,-46.49,0,*57
1483869721.91,8732,3.5,72598.8,-10.45,-44.47,-45.21,0,*5F
1483869723.13,8733,3.5,72592.3,-10.47,-43.75,-44.53,0,*5E
1483869724.34,8734,3.5,72594.5,-10.45,-43.41,-43.87,0,*52
1483869725.57,8735,3.5,72592.5,-10.45,-43.29,-43.75,0,*50
1483869726.81,8736,3.5,72596.3,-10.45,-43.29,-43.95,0,*5D
1483869728.04,8737,3.5,72598.0,-10.45,-43.49,-44.13,0,*53
1483869729.26,8738,3.56,72598.8,-10.43,-43.41,-43.95,0,*5B
1483869730.5,8739,3.5,72592.0,-10.43,-43.29,-43.95,0,*54
1483869731.72,8740,3.5,72592.0,-10.43,-43.41,-44.07,0,*58
1483869732.96,8741,3.5,72596.3,-10.41,-43.49,-44.07,0,*53
1483869734.2,8742,3.5,72600.3,-10.43,-43.55,-44.27,0,*5D
1483869735.43,8743,3.5,72592.8,-10.41,-45.33,-46.21,0,*5C
1483869736.7,8744,3.5,72602.8,-10.41,-44.67,-45.53,0,*5D
1483869737.95,8745,3.5,72594.8,-10.43,-45.53,-46.27,0,*58
1483869739.22,8746,3.5,72598.0,-10.41,-44.13,-44.87,0,*54
1483869740.45,8747,3.5,72598.0,-10.43,-43.55,-44.07,0,*5A
1483869741.7,8748,3.5,72596.3,-10.41,-44.27,-44.87,0,*5D
1483869742.93,8749,3.56,72600.3,-10.43,-43.87,-44.47,0,*5F
1483869744.17,8750,3.56,72602.0,-10.41,-43.41,-44.07,0,*5B
1483869745.41,8751,3.56,72598.8,-10.41,-43.49,-44.07,0,*52
1483869746.67,8752,3.5,72596.3,-10.41,-43.95,-44.67,0,*56
1483869747.96,8753,3.5,72598.5,-10.41,-43.67,-44.33,0,*5B
1483869749.2,8754,3.5,72598.0,-10.37,-43.61,-44.27,0,*5E
1483869750.44,8755,3.5,72600.3,-10.35,-42.89,-43.55,0,*58
1483869751.67,8756,3.5,72600.0,-10.35,-42.89,-43.55,0,*5B
1483869752.91,8757,3.5,72602.5,-10.35,-42.51,-43.29,0,*54
1483869754.14,8758,3.56,72598.3,-10.35,-43.55,-44.41,0,*57
1483869755.35,8759,3.5,72596.8,-10.31,-44.53,-45.41,0,*52
1483869756.61,8760,3.5,72600.8,-10.33,-43.61,-44.33,0,*58
1483869757.88,8761,3.5,72602.5,-10.33,-42.95,-43.61,0,*53
1483869759.14,8762,3.56,72604.8,-10.33,-43.35,-44.01,0,*5A
1483869760.4,8763,3.5,72598.3,-10.33,-43.61,-44.33,0,*5B
1483869761.63,8764,3.5,72596.3,-10.31,-43.29,-44.07,0,*55
1483869762.86,8765,3.5,72592.5,-10.31,-43.49,-44.13,0,*57
1483869764.08,8766,3.5,72590.0,-10.31,-43.21,-43.87,0,*50
1483869765.29,8767,3.5,72594.3,-10.31,-43.49,-44.27,0,*52
1483869766.5,8768,3.5,72596.0,-10.31,-44.07,-44.79,0,*5B
1483869767.73,8769,3.5,72602.0,-10.31,-43.75,-44.47,0,*55
1483869768.93,8770,3.5,72602.0,-10.31,-43.95,-44.79,0,*5E
1483869770.16,8771,3.5,72600.5,-10.31,-44.67,-45.41,0,*5F
1483869771.43,8772,3.5,72598.3,-10.33,-44.73,-45.61,0,*59
1483869772.67,8773,3.5,72594.5,-10.31,-44.73,-45.21,0,*5E
1483869773.95,8774,3.5,72588.8,-10.33,-44.01,-44.73,0,*58
1483869775.21,8775,3.5,72588.3,-10.33,-43.35,-44.13,0,*5F
1483869776.42,8776,3.5,72594.8,-10.31,-43.95,-44.79,0,*58
1483869777.7,8777,3.5,72598.0,-10.33,-44.33,-45.07,0,*58
1483869778.89,8778,3.5,72596.5,-10.31,-43.87,-44.53,0,*5D
1483869780.13,8779,3.5,72604.3,-10.33,-44.41,-45.21,0,*57
1483869781.39,8780,3.5,72598.8,-10.33,-44.41,-45.07,0,*55
1483869782.64,8781,3.5,72602.8,-10.33,-44.41,-45.27,0,*56
1483869783.88,8782,3.5,72602.3,-10.31,-43.95,-44.73,0,*59
1483869785.11,8783,3.5,72588.0,-10.31,-44.47,-45.21,0,*56
1483869786.37,8784,3.5,72594.8,-10.33,-44.41,-45.07,0,*51
1483869787.56,8785,3.5,72596.0,-10.31,-43.87,-44.53,0,*5F
1483869788.79,8786,3.5,72606.0,-10.31,-43.29,-43.87,0,*56
1483869790.03,8787,3.5,72608.0,-10.31,-43.29,-43.95,0,*54
1483869791.26,8788,3.5,72602.3,-10.31,-44.47,-45.41,0,*5B
1483869792.47,8789,3.5,72602.3,-10.31,-44.27,-45.13,0,*5B
1483869793.69,8790,3.5,72602.3,-10.31,-43.95,-44.67,0,*5F
1483869794.93,8791,3.5,72598.3,-10.31,-43.29,-43.95,0,*53
1483869796.14,8792,3.5,72606.5,-10.31,-43.49,-44.07,0,*5A
1483869797.39,8793,3.5,72602.5,-10.31,-44.67,-45.73,0,*52
1483869798.69,8794,3.5,72596.3,-10.33,-45.27,-46.15,0,*51
1483869799.95,8795,3.5,72596.8,-10.33,-44.41,-45.07,0,*51
1483869801.18,8796,3.5,72598.3,-10.31,-43.49,-44.13,0,*5B
1483869802.41,8797,3.5,72598.0,-10.31,-43.95,-44.67,0,*58
1483869803.63,8798,3.5,72600.5,-10.31,-44.13,-44.79,0,*51
1483869804.87,8799,3.5,72596.8,-10.33,-44.41,-45.21,0,*59
1483869806.1,8800,3.5,72592.3,-10.31,-44.33,-45.21,0,*51
1483869807.37,8801,3.5,72602.8,-10.33,-43.29,-43.95,0,*57
1483869808.62,8802,3.56,72602.3,-10.31,-43.55,-44.33,0,*56
1483869809.88,8803,3.5,72606.8,-10.31,-44.13,-44.93,0,*58
1483869811.12,8804,3.5,72600.3,-10.31,-44.73,-45.61,0,*55
1483869812.36,8805,3.5,72598.8,-10.29,-44.53,-45.33,0,*58
1483869813.57,8806,3.5,72602.3,-10.31,-44.41,-45.21,0,*52
1483869814.79,8807,3.5,72602.8,-10.31,-43.81,-44.53,0,*5C
1483869816.0,8808,3.56,72600.5,-10.31,-43.49,-44.27,0,*54
1483869817.25,8809,3.5,72602.3,-10.31,-43.55,-44.13,0,*5F
1483869818.51,8810,3.5,72606.3,-10.29,-43.35,-44.13,0,*58
1483869819.75,8811,3.5,72596.0,-10.29,-43.49,-44.27,0,*55
1483869820.98,8812,3.5,72600.0,-10.29,-43.75,-44.53,0,*5A
1483869822.27,8813,3.5,72596.0,-10.29,-43.55,-44.13,0,*5D
1483869823.52,8814,3.5,72592.0,-10.27,-43.29,-44.01,0,*5C
1483869824.77,8815,3.56,72592.0,-10.27,-43.67,-44.47,0,*55
1483869825.97,8816,3.5,72598.5,-10.27,-43.87,-44.61,0,*5C
1483869827.24,8817,3.56,72598.3,-10.25,-43.61,-44.21,0,*53
1483869828.52,8818,3.5,72596.3,-10.25,-43.81,-44.73,0,*55
1483869829.76,8819,3.56,72598.8,-10.25,-44.27,-45.13,0,*58
1483869831.05,8820,3.5,72602.0,-10.25,-44.21,-44.93,0,*5D
1483869832.28,8821,3.5,72604.3,-10.27,-43.81,-44.27,0,*5C
1483869833.52,8822,3.5,72604.0,-10.29,-44.27,-45.13,0,*5C
1483869834.78,8823,3.56,72608.0,-10.27,-44.21,-44.93,0,*5C
1483869836.02,8824,3.5,72608.3,-10.27,-44.27,-45.07,0,*51
1483869837.23,8825,3.56,72598.5,-10.27,-44.41,-45.33,0,*57
1483869838.46,8826,3.5,72594.5,-10.29,-44.27,-45.13,0,*58
1483869839.71,8827,3.5,72592.8,-10.27,-43.81,-44.47,0,*5C
1483869840.95,8828,3.5,72594.8,-10.27,-43.49,-44.21,0,*57
1483869842.17,8829,3.5,72596.0,-10.27,-43.81,-44.41,0,*54
1483869843.43,8830,3.5,72592.5,-10.27,-44.01,-44.73,0,*52
1483869844.69,8831,3.5,72590.8,-10.27,-44.01,-44.73,0,*53
1483869845.94,8832,3.5,72592.8,-10.27,-43.67,-44.47,0,*50
1483869847.22,8833,3.5,72596.3,-10.25,-43.21,-44.01,0,*53
1483869848.44,8834,3.5,72602.5,-10.23,-43.15,-43.81,0,*5A
1483869849.68,8835,3.56,72596.5,-10.25,-43.61,-44.27,0,*55
1483869850.92,8836,3.5,72590.0,-10.23,-43.09,-43.75,0,*5E
1483869852.15,8837,3.5,72596.5,-10.23,-43.41,-44.01,0,*57
1483869853.4,8838,3.56,72600.3,-10.21,-43.35,-44.13,0,*5A
1483869854.64,8839,3.5,72602.8,-10.21,-43.61,-44.53,0,*5E
1483869855.89,8840,3.5,72600.3,-10.21,-43.95,-44.67,0,*5C
1483869857.11,8841,3.56,72602.3,-10.23,-43.81,-44.53,0,*5D
1483869858.33,8842,3.5,72592.3,-10.23,-44.87,-45.67,0,*59
1483869859.58,8843,3.5,72592.8,-10.21,-44.13,-44.79,0,*59
1483869860.82,8844,3.56,72592.3,-10.21,-43.61,-44.41,0,*57
1483869862.05,8845,3.5,72598.0,-10.23,-44.13,-44.99,0,*53
1483869863.31,8846,3.56,72596.0,-10.21,-44.01,-44.87,0,*5E
1483869864.54,8847,3.5,72592.0,-10.23,-44.13,-44.99,0,*51
1483869865.76,8848,3.56,72600.5,-10.23,-43.81,-44.79,0,*5C
1483869867.0,8849,3.56,72602.8,-10.23,-44.67,-45.41,0,*58
1483869868.25,8850,3.56,72602.5,-10.25,-44.47,-45.13,0,*53
1483869869.49,8851,3.5,72598.3,-10.23,-43.75,-44.21,0,*52
1483869870.72,8852,3.5,72592.3,-10.23,-43.35,-44.13,0,*54
1483869871.95,8853,3.5,72592.3,-10.21,-43.75,-44.41,0,*54
1483869873.18,8854,3.56,72600.5,-10.21,-44.53,-45.41,0,*51
1483869874.46,8855,3.5,72602.8,-10.21,-44.01,-44.67,0,*52
1483869875.72,8856,3.5,72596.0,-10.21,-43.61,-44.33,0,*51
1483869876.93,8857,3.5,72594.5,-10.19,-43.75,-44.53,0,*58
1483869878.19,8858,3.5,72598.3,-10.21,-44.01,-44.79,0,*50
1483869879.46,8859,3.56,72598.5,-10.21,-43.81,-44.67,0,*51
1483869880.66,8860,3.56,72596.8,-10.19,-43.87,-44.61,0,*50
1483869881.92,8861,3.5,72598.5,-10.21,-43.81,-44.53,0,*5D
1483869883.15,8862,3.5,72594.5,-10.19,-43.35,-44.01,0,*5D
1483869884.41,8863,3.5,72590.8,-10.21,-44.01,-44.87,0,*59
1483869885.67,8864,3.56,72594.8,-10.21,-44.61,-45.27,0,*53
1483869886.9,8865,3.56,72596.8,-10.19,-44.33,-44.99,0,*5A
1483869888.16,8866,3.5,72590.8,-10.21,-44.01,-44.87,0,*5C
1483869889.43,8867,3.5,72594.8,-10.21,-44.21,-44.87,0,*5F
1483869890.68,8868,3.5,72598.8,-10.21,-44.13,-44.53,0,*58
1483869891.91,8869,3.56,72604.5,-10.21,-43.95,-44.53,0,*50
1483869893.16,8870,3.56,72602.8,-10.21,-43.35,-44.01,0,*55
1483869894.39,8871,3.56,72598.3,-10.19,-43.35,-44.13,0,*5C
1483869895.65,8872,3.5,72592.3,-10.21,-43.81,-44.41,0,*5C
1483869896.88,8873,3.5,72592.8,-10.19,-44.33,-45.13,0,*5E
1483869898.08,8874,3.5,72594.5,-10.19,-43.95,-44.61,0,*56
1483869899.34,8875,3.5,72594.8,-10.21,-43.81,-44.53,0,*58
1483869900.6,8876,3.5,72590.0,-10.19,-43.55,-44.21,0,*5C
1483869901.84,8877,3.56,72592.0,-10.19,-44.07,-44.93,0,*54
1483869903.12,8878,3.56,72600.0,-10.21,-44.33,-45.07,0,*5B
1483869904.36,8879,3.5,72586.8,-10.21,-44.79,-45.67,0,*52
1483869905.62,8880,3.56,72592.5,-10.21,-44.33,-45.21,0,*58
1483869906.88,8881,3.5,72594.8,-10.21,-44.21,-44.99,0,*58
1483869908.11,8882,3.56,72596.0,-10.21,-43.75,-44.53,0,*5B
1483869909.37,8883,3.56,72592.5,-10.21,-44.01,-44.53,0,*5E
1483869910.57,8884,3.56,72602.0,-10.19,-44.53,-44.99,0,*53
1483869911.81,8885,3.56,72598.8,-10.21,-45.21,-45.95,0,*50
1483869913.04,8886,3.5,72592.5,-10.21,-43.95,-44.53,0,*51
1483869914.27,8887,3.56,72600.3,-10.21,-43.95,-44.41,0,*53
1483869915.54,8888,3.56,72596.3,-10.21,-43.41,-44.21,0,*53
1483869916.78,8889,3.56,72596.0,-10.19,-44.27,-44.93,0,*57
1483869918.02,8890,3.56,72602.0,-10.19,-43.41,-44.01,0,*53
1483869919.3,8891,3.56,72596.8,-10.21,-43.55,-44.13,0,*5F
1483869920.53,8892,3.56,72602.5,-10.19,-44.07,-44.73,0,*51
1483869921.79,8893,3.56,72598.0,-10.21,-44.01,-44.53,0,*5F
1483869923.04,8894,3.56,72598.0,-10.21,-44.01,-44.53,0,*58
1483869924.28,8895,3.5,72596.0,-10.19,-43.49,-44.13,0,*5D
1483869925.51,8896,3.5,72600.8,-10.19,-44.47,-45.21,0,*57
1483869926.75,8897,3.56,72604.3,-10.21,-44.61,-45.41,0,*5F
1483869928.0,8898,3.5,72602.3,-10.21,-43.81,-44.53,0,*5B
1483869929.26,8899,3.5,72604.8,-10.21,-44.61,-45.27,0,*51
1483869930.54,8900,3.5,72604.5,-10.21,-44.67,-45.27,0,*56
1483869931.8,8901,3.5,72604.0,-10.21,-44.33,-44.79,0,*5C
1483869933.0,8902,3.56,72606.5,-10.19,-43.87,-44.41,0,*57
1483869934.24,8903,3.5,72594.3,-10.21,-43.35,-43.95,0,*5A
1483869935.5,8904,3.5,72598.0,-10.21,-43.41,-44.13,0,*57
1483869936.75,8905,3.56,72604.8,-10.21,-43.95,-44.67,0,*5C
1483869938.02,8906,3.56,72608.5,-10.21,-43.81,-44.67,0,*5A
1483869939.25,8907,3.56,72608.5,-10.21,-43.75,-44.41,0,*54
1483869940.47,8908,3.56,72612.0,-10.19,-44.27,-45.13,0,*56
1483869941.77,8909,3.5,72608.0,-10.21,-45.27,-46.15,0,*58
1483869943.0,8910,3.56,72608.8,-10.23,-44.99,-45.81,0,*58
1483869944.21,8911,3.5,72610.5,-10.23,-44.99,-45.67,0,*51
1483869945.48,8912,3.5,72610.8,-10.25,-44.67,-45.53,0,*52
1483869946.71,8913,3.56,72612.0,-10.25,-45.87,-46.75,0,*5B
1483869947.92,8914,3.56,72612.0,-10.27,-46.01,-46.97,0,*5F
1483869949.16,8915,3.56,72608.5,-10.29,-45.61,-46.21,0,*58
1483869950.4,8916,3.56,72606.8,-10.29,-44.53,-45.21,0,*58
1483869951.65,8917,3.56,72604.0,-10.27,-43.81,-44.47,0,*5E
1483869952.87,8918,3.56,72598.0,-10.27,-43.81,-44.61,0,*55
1483869954.11,8919,3.56,72594.5,-10.27,-44.01,-44.87,0,*53
1483869955.37,8920,3.5,72588.5,-10.29,-44.47,-45.41,0,*5E
1483869956.62,8921,3.56,72588.5,-10.29,-44.79,-45.53,0,*51
1483869957.86,8922,3.56,72590.3,-10.27,-44.67,-45.53,0,*53
1483869959.15,8923,3.56,72590.3,-10.29,-44.13,-44.93,0,*52
1483869960.39,8924,3.5,72590.5,-10.27,-43.81,-44.47,0,*5E
1483869961.65,8925,3.56,72572.0,-10.29,-44.47,-45.33,0,*5E
1483869962.87,8926,3.5,72568.8,-10.27,-44.87,-45.67,0,*5E
1483869964.08,8927,3.5,72584.8,-10.27,-44.61,-45.41,0,*53
1483869965.34,8928,3.56,72594.5,-10.27,-45.47,-46.41,0,*5A
1483869966.59,8929,3.5,72596.8,-10.29,-47.03,-47.99,0,*53
1483869967.88,8930,3.56,72600.8,-10.33,-46.69,-47.45,0,*5C
1483869969.09,8931,3.56,72600.5,-10.35,-45.87,-46.55,0,*58
1483869970.33,8932,3.56,72602.8,-10.35,-46.49,-47.31,0,*59
1483869971.59,8933,3.56,72592.3,-10.37,-45.53,-46.41,0,*54
1483869972.89,8934,3.5,72582.3,-10.41,-46.69,-47.45,0,*5D
1483869974.17,8935,3.56,72576.3,-10.41,-45.73,-46.41,0,*51
1483869975.46,8936,3.56,72570.5,-10.37,-44.47,-45.27,0,*56
1483869976.73,8937,3.56,72580.3,-10.41,-44.47,-45.21,0,*50
1483869977.97,8938,3.5,72582.3,-10.43,-44.47,-45.21,0,*5D
1483869979.24,8939,3.56,72586.8,-10.41,-44.67,-45.41,0,*5A
1483869980.51,8940,3.56,72594.5,-10.41,-44.93,-45.61,0,*5D
1483869981.75,8941,3.5,72584.3,-10.43,-44.73,-45.41,0,*52
1483869983.02,8942,3.5,72588.5,-10.41,-45.33,-46.27,0,*55
1483869984.26,8943,3.5,72594.3,-10.41,-45.21,-45.95,0,*5D
1483869985.56,8944,3.5,72594.5,-10.41,-44.93,-45.73,0,*5A
1483869986.83,8945,3.5,72592.8,-10.41,-44.99,-45.81,0,*5C
1483869988.06,8946,3.56,72600.5,-10.43,-44.87,-45.53,0,*5D
1483869989.3,8947,3.56,72604.5,-10.43,-44.67,-45.41,0,*51
1483869990.54,8948,3.56,72602.5,-10.41,-44.07,-44.87,0,*51
1483869991.78,8949,3.5,72602.3,-10.43,-44.67,-45.53,0,*5C
1483869993.03,8950,3.56,72602.3,-10.43,-44.73,-45.53,0,*51
1483869994.27,8951,3.56,72588.5,-10.43,-46.27,-47.09,0,*5E
1483869995.5,8952,3.56,72586.8,-10.43,-44.87,-45.53,0,*58
1483869996.72,8953,3.5,72586.8,-10.45,-43.95,-44.67,0,*5D
1483869997.96,8954,3.56,72594.8,-10.45,-44.07,-44.73,0,*53
1483869999.16,8955,3.56,72588.3,-10.45,-43.87,-44.53,0,*5F
1483870000.39,8956,3.56,72594.0,-10.45,-44.33,-44.99,0,*52
1483870001.61,8957,3.56,72590.8,-10.43,-44.27,-44.87,0,*5F
1483870002.84,8958,3.56,72588.0,-10.43,-44.33,-44.99,0,*5A
1483870004.07,8959,3.56,72598.0,-10.43,-43.87,-44.47,0,*50
1483870005.31,8960,3.56,72588.8,-10.43,-46.61,-47.51,0,*53
1483870006.57,8961,3.5,72590.5,-10.43,-45.73,-46.49,0,*5A
1483870007.84,8962,3.56,72592.3,-10.43,-44.93,-45.73,0,*5C
1483870009.1,8963,3.56,72596.3,-10.47,-44.73,-45.41,0,*56
1483870010.33,8964,3.56,72592.5,-10.45,-44.13,-44.87,0,*5E
1483870011.56,8965,3.56,72598.8,-10.45,-43.95,-44.73,0,*5D
1483870012.79,8966,3.56,72592.3,-10.45,-44.33,-44.99,0,*51
1483870014.02,8967,3.56,72594.8,-10.45,-44.13,-44.99,0,*52
1483870015.25,8968,3.56,72592.5,-10.45,-44.33,-44.99,0,*5F
1483870016.48,8969,3.56,72592.0,-10.45,-43.95,-44.67,0,*54
1483870017.69,8970,3.56,72592.5,-10.45,-44.53,-45.21,0,*52
1483870018.93,8971,3.56,72594.8,-10.43,-44.33,-45.13,0,*52
1483870020.16,8972,3.56,72598.8,-10.43,-44.33,-44.87,0,*5D
1483870021.44,8973,3.5,72594.0,-10.43,-44.73,-45.81,0,*5F
1483870022.69,8974,3.56,72596.8,-10.43,-44.93,-45.53,0,*59
1483870023.9,8975,3.56,72592.0,-10.45,-44.53,-45.21,0,*57
1483870025.11,8976,3.56,72592.5,-10.45,-44.27,-44.99,0,*55
1483870026.34,8977,3.56,72590.0,-10.45,-44.07,-44.67,0,*57
1483870027.55,8978,3.56,72592.5,-10.45,-43.49,-44.27,0,*51
1483870028.8,8979,3.56,72594.0,-10.45,-43.67,-44.33,0,*59
1483870030.04,8980,3.56,72588.3,-10.43,-44.67,-45.33,0,*5F
1483870031.28,8981,3.56,72592.3,-10.43,-43.75,-44.33,0,*5B
1483870032.51,8982,3.56,72594.8,-10.45,-44.67,-45.41,0,*5E
1483870033.75,8983,3.56,72590.5,-10.43,-44.33,-44.99,0,*5C
1483870034.96,8984,3.56,72590.0,-10.45,-43.49,-44.27,0,*52
1483870036.21,8985,3.56,72594.5,-10.41,-43.87,-44.47,0,*53
1483870037.43,8986,3.56,72592.0,-10.43,-43.41,-44.07,0,*5C
1483870038.69,8987,3.56,72596.0,-10.43,-43.55,-44.33,0,*5F
1483870039.98,8988,3.56,72594.8,-10.41,-44.13,-44.73,0,*53
1483870041.22,8989,3.56,72592.0,-10.41,-44.27,-45.13,0,*52
1483870042.46,8990,3.56,72592.3,-10.43,-43.55,-44.27,0,*5C
1483870043.75,8991,3.56,72594.5,-10.41,-44.13,-44.73,0,*5B
1483870045.0,8992,3.56,72598.3,-10.43,-45.53,-46.27,0,*5C
1483870046.23,8993,3.56,72596.0,-10.43,-45.61,-46.41,0,*5C
1483870047.46,8994,3.56,72594.3,-10.43,-44.87,-45.53,0,*52
1483870048.68,8995,3.56,72594.5,-10.43,-44.27,-45.13,0,*5D
1483870049.92,8996,3.56,72600.5,-10.43,-44.47,-45.21,0,*59
1483870051.15,8997,3.56,72600.5,-10.43,-43.95,-44.67,0,*53
1483870052.38,8998,3.56,72600.8,-10.43,-43.95,-44.67,0,*5C
1483870053.67,8999,3.56,72594.5,-10.41,-43.55,-44.13,0,*50
1483870054.91,9000,3.56,72594.8,-10.43,-43.67,-44.27,0,*5C
1483870056.2,9001,3.56,72596.0,-10.41,-43.55,-44.13,0,*59
1483870057.46,9002,3.56,72596.8,-10.41,-43.29,-43.87,0,*5B
1483870058.72,9003,3.56,72596.5,-10.41,-43.21,-43.87,0,*52
1483870059.98,9004,3.56,72592.5,-10.37,-44.07,-44.93,0,*55
1483870061.24,9005,3.56,72598.5,-10.37,-44.47,-45.13,0,*59
1483870062.53,9006,3.56,72598.5,-10.37,-44.21,-45.07,0,*5F
1483870063.79,9007,3.56,72600.3,-10.37,-44.47,-45.33,0,*59
1483870065.04,9008,3.56,72604.5,-10.41,-45.33,-46.01,0,*57
1483870066.28,9009,3.56,72602.8,-10.41,-44.53,-45.33,0,*53
1483870067.53,9010,3.56,72600.5,-10.41,-44.87,-45.61,0,*55
1483870068.79,9011,3.56,72598.8,-10.41,-43.87,-44.47,0,*56
1483870070.03,9012,3.56,72596.8,-10.43,-44.13,-44.87,0,*51
1483870071.27,9013,3.56,72602.3,-10.41,-43.49,-44.07,0,*52
1483870072.54,9014,3.56,72600.3,-10.41,-42.89,-43.55,0,*58
1483870073.8,9015,3.56,72606.5,-10.41,-44.07,-44.73,0,*5A
1483870075.05,9016,3.56,72600.3,-10.41,-45.33,-46.01,0,*58
1483870076.32,9017,3.56,72602.8,-10.41,-44.93,-45.61,0,*57
1483870077.58,9018,3.56,72608.8,-10.41,-44.33,-45.13,0,*57
1483870078.84,9019,3.56,72602.0,-10.41,-44.07,-44.47,0,*51
1483870080.11,9020,3.56,72600.5,-10.41,-44.99,-45.81,0,*57
1483870081.35,9021,3.56,72604.8,-10.43,-45.61,-46.41,0,*5D
1483870082.59,9022,3.56,72602.8,-10.43,-46.41,-47.31,0,*59
1483870083.82,9023,3.56,72602.0,-10.45,-46.41,-47.31,0,*5E
1483870085.04,9024,3.56,72600.3,-10.47,-45.87,-46.75,0,*53
1483870086.28,9025,3.56,72604.3,-10.49,-46.01,-46.89,0,*52
1483870087.53,9026,3.56,72604.8,-10.51,-46.41,-47.17,0,*5A
1483870088.77,9027,3.56,72602.0,-10.49,-46.07,-46.75,0,*55
1483870090.01,9028,3.56,72596.3,-10.51,-45.95,-46.75,0,*5B
1483870091.24,9029,3.56,72594.5,-10.53,-45.87,-46.61,0,*5E
1483870092.45,9030,3.56,72586.3,-10.53,-45.67,-46.35,0,*59
1483870093.69,9031,3.56,72592.3,-10.53,-44.67,-45.33,0,*5C
1483870094.9,9032,3.56,72594.5,-10.53,-45.13,-45.95,0,*51
1483870096.17,9033,3.56,72592.5,-10.55,-46.83,-47.79,0,*5C
1483870097.4,9034,3.5,72590.5,-10.57,-48.13,-49.25,0,*59
1483870098.65,9035,3.56,72596.3,-10.59,-47.09,-48.07,0,*53
1483870099.93,9036,3.56,72596.3,-10.59,-46.07,-46.89,0,*57
1483870101.14,9037,3.56,72594.0,-10.65,-45.33,-46.35,0,*5A
1483870102.38,9038,3.5,72596.3,-10.63,-44.87,-45.87,0,*57
1483870103.65,9039,3.56,72598.3,-10.63,-45.27,-45.95,0,*5E
1483870104.89,9040,3.56,72598.0,-10.65,-44.99,-45.73,0,*5A
1483870106.16,9041,3.56,72592.0,-10.63,-45.27,-45.87,0,*52
1483870107.39,9042,3.56,72598.0,-10.65,-44.41,-45.07,0,*5E
1483870108.62,9043,3.5,72596.0,-10.63,-45.67,-46.55,0,*58
1483870109.85,9044,3.56,72596.3,-10.63,-44.41,-44.99,0,*58